Lapse_Rate
4.6 4.5 5.0 5.6 6.6 6.7 6.7 6.8 7.2 7.5 7.4 7.4 7.5 7.0 6.8 6.3 6.6 6.5 6.7 6.5 6.7 6.4 6.3 6.5 5.8 5.6 5.8 6.0 5.8 5.7 5.4 5.4 5.3 5.6 5.7 5.7 5.7 5.6 5.6 5.6 5.4 5.3 5.6 5.6 5.5 5.6 5.8
4.6 4.6 5.4 5.8 6.7 6.5 6.4 6.5 7.2 7.7 7.3 7.0 7.1 7.3 7.3 6.7 6.4 6.5 6.5 6.5 6.8 6.3 6.3 6.5 6.0 5.8 5.5 5.9 5.8 5.8 5.5 5.4 5.3 5.5 5.6 5.7 5.7 5.7 5.6 5.6 5.5 5.5 5.6 5.6 5.6 5.5 5.6
4.7 4.5 5.3 5.8 6.7 6.4 6.4 6.2 6.3 7.1 7.3 7.0 7.0 7.4 7.4 7.3 6.5 6.2 6.1 6.7 6.7 6.5 6.5 6.3 5.9 5.6 5.5 5.9 5.7 5.7 5.7 5.4 5.3 5.5 5.6 5.7 5.8 5.8 5.8 5.7 5.6 5.6 5.5 5.5 5.6 5.6 5.6
4.7 4.5 5.0 5.7 6.5 6.6 6.3 6.1 6.1 6.3 6.8 6.9 7.1 7.4 7.5 6.9 6.6 6.8 7.1 6.8 6.7 6.5 6.8 6.6 6.1 5.3 5.4 5.6 5.9 5.9 5.3 5.2 5.6 5.8 5.9 5.9 5.9 5.8 5.8 5.8 5.8 5.8 5.8 5.7 6.0 5.9 5.7
4.7 4.6 4.8 5.5 6.3 6.8 6.4 5.9 6.0 6.3 6.3 6.7 7.0 7.1 7.4 6.8 6.8 6.8 6.9 6.8 6.8 6.7 6.9 6.5 6.3 6.0 5.6 5.4 5.5 5.8 5.5 5.2 5.4 5.7 5.9 5.9 6.0 6.1 6.0 5.9 5.9 5.9 5.5 6.0 5.9 6.1 5.6
4.7 4.6 4.7 5.3 5.8 6.7 6.6 6.2 5.9 6.2 6.1 5.9 6.6 6.7 6.9 7.7 7.4 6.7 6.9 6.8 6.8 6.9 6.9 6.5 6.4 6.2 5.7 5.8 5.6 5.6 5.5 5.4 5.6 5.8 5.7 5.9 5.9 6.0 5.9 5.9 6.1 5.5 5.9 6.1 6.1 5.6 5.6
4.8 4.6 4.6 5.1 5.7 6.3 6.8 6.6 6.2 6.3 6.5 6.2 6.2 6.7 6.7 7.5 7.7 7.4 7.2 6.9 6.9 6.8 6.8 6.5 6.3 6.1 5.9 5.6 5.4 5.4 5.4 5.6 5.3 5.7 5.9 6.1 6.1 5.9 5.9 5.9 6.0 6.0 6.0 5.8 5.9 5.5 5.7
5.0 4.6 4.6 4.9 5.5 6.2 6.5 6.9 6.6 6.3 6.6 6.7 6.1 6.6 6.7 6.8 7.1 7.1 6.8 7.3 7.1 6.8 6.2 6.1 6.3 6.2 5.9 6.0 5.8 5.7 5.8 5.7 5.6 5.7 5.8 6.0 6.0 6.0 6.0 5.9 5.9 5.9 5.7 5.2 6.0 5.5 5.2
5.0 4.9 4.7 4.7 5.2 5.9 6.2 6.7 6.9 6.6 6.6 6.7 6.7 6.9 6.8 6.3 6.6 6.7 6.8 6.8 6.9 6.7 6.2 6.1 6.2 6.2 6.1 6.0 5.9 5.7 5.6 5.6 5.7 5.7 5.8 6.0 5.9 5.9 5.8 5.8 5.7 5.5 5.5 5.2 5.2 5.4 5.1
5.1 5.0 4.7 4.8 5.1 5.6 6.3 6.1 6.7 6.9 6.8 6.6 6.7 6.8 6.9 6.8 6.8 6.5 6.6 6.4 6.4 6.6 6.1 6.0 6.0 5.9 5.9 5.9 5.6 5.5 5.6 5.7 5.6 5.7 5.9 5.8 5.8 5.7 5.7 5.6 5.5 5.0 5.4 5.1 4.9 4.2 5.0
5.5 5.2 4.9 4.8 5.1 5.6 5.9 6.3 6.5 6.4 6.9 7.1 6.7 6.6 6.3 6.3 6.6 6.6 6.7 6.8 6.8 6.9 6.1 5.9 5.8 5.8 5.8 5.7 5.7 5.8 5.9 5.8 5.8 5.8 5.8 5.6 5.5 5.6 5.5 5.3 5.3 4.9 5.2 5.0 4.8 4.6 4.5
5.7 5.4 5.4 4.8 5.1 5.4 6.3 6.6 6.6 6.6 6.5 6.7 6.9 7.0 7.0 6.7 6.6 6.6 6.6 6.7 6.6 6.4 5.5 5.6 5.3 5.3 5.6 5.7 5.7 5.6 5.8 5.8 5.8 5.8 5.7 5.5 5.5 5.5 5.4 5.5 5.6 5.4 5.5 5.2 4.9 4.7 4.8
5.6 5.6 5.5 5.4 5.1 5.6 5.9 6.9 7.0 6.9 6.8 6.7 6.7 6.6 6.8 7.0 6.7 6.8 6.9 6.8 6.6 5.0 5.0 5.5 5.4 5.6 5.8 5.8 5.8 5.8 5.7 5.7 5.5 5.5 5.6 5.7 5.7 5.8 5.8 5.8 5.6 5.5 5.4 6.0 5.8 5.4 6.3
5.5 5.8 5.7 5.7 5.3 5.7 5.8 6.5 7.1 7.0 6.8 6.7 7.2 7.2 7.3 7.1 7.1 6.8 6.9 7.0 5.0 4.6 5.1 5.4 5.5 5.6 5.6 5.6 5.5 5.5 5.4 5.3 5.4 5.6 5.6 5.3 5.9 5.8 5.6 5.7 5.4 5.3 5.2 5.5 6.1 6.7 6.7
5.5 5.6 5.8 5.8 5.8 5.4 5.8 6.0 6.6 7.0 6.9 6.6 6.9 7.2 7.3 7.4 7.3 6.8 7.1 6.8 5.4 5.4 5.7 5.6 5.7 5.7 5.5 5.5 5.5 5.6 5.6 5.5 5.6 5.5 5.3 5.3 5.6 5.9 5.9 5.7 5.5 5.4 5.3 5.4 5.2 5.0 5.1
5.7 5.5 5.7 5.8 5.9 5.7 5.5 5.7 6.0 6.6 6.9 6.8 6.6 6.9 6.8 7.0 7.7 7.7 7.6 6.1 5.8 6.0 6.0 5.9 5.7 5.8 5.5 5.7 5.7 5.7 5.7 5.5 5.4 5.6 5.8 5.5 5.5 5.9 5.8 5.7 5.5 5.4 5.2 5.1 4.9 5.5 6.0
5.4 5.5 5.6 5.8 5.8 5.9 5.7 5.5 5.8 6.1 6.6 6.7 6.7 6.6 6.2 6.2 6.6 7.1 6.5 5.6 5.9 6.1 6.3 6.3 6.2 6.1 5.9 5.8 5.7 5.8 6.0 5.8 5.7 5.6 5.6 5.4 5.6 5.9 5.8 5.7 5.5 5.1 5.0 4.7 4.7 4.9 5.8
6.0 5.5 5.4 5.6 5.9 5.8 5.8 5.7 5.6 5.9 6.1 6.4 6.7 6.6 6.2 6.0 6.6 6.4 5.9 5.7 5.5 5.6 5.7 5.7 5.9 5.9 5.7 5.6 5.6 5.6 5.7 5.8 5.8 5.6 5.5 5.6 5.3 5.1 5.9 5.8 5.3 5.1 5.0 4.8 5.0 5.2 4.7
5.9 5.5 5.5 5.2 5.6 5.9 5.7 5.7 5.8 5.8 6.0 6.1 6.3 6.6 6.3 6.0 6.1 6.0 5.8 5.7 5.6 5.7 5.7 5.7 5.5 5.7 5.8 5.7 5.5 5.6 5.6 5.7 5.7 5.6 5.5 5.4 5.2 5.0 5.4 5.4 5.2 5.1 5.1 4.7 4.6 4.6 4.9
5.7 5.5 5.3 5.4 5.0 5.7 5.8 5.6 5.7 5.8 5.8 5.9 6.1 6.0 6.3 6.3 6.1 5.8 5.7 5.7 5.6 5.6 5.7 5.8 5.6 5.6 5.6 5.7 5.8 5.8 5.8 5.8 5.6 5.5 5.3 5.1 5.2 5.2 5.8 5.5 5.3 5.1 5.3 5.0 4.7 4.6 5.6
5.9 5.7 5.3 5.2 5.2 5.0 5.5 5.6 5.5 5.7 5.7 5.9 5.8 5.8 6.0 6.1 6.2 6.1 5.9 5.9 5.9 5.9 5.8 5.8 5.8 5.8 5.9 5.8 5.7 5.6 5.5 5.3 5.3 5.2 5.1 5.0 5.1 5.2 5.5 5.5 5.4 5.5 5.5 5.2 5.2 5.3 5.0
5.5 5.9 5.4 5.2 5.2 5.1 5.0 5.3 5.6 5.5 5.6 5.6 5.7 5.7 5.6 5.7 5.8 5.9 5.9 5.9 6.0 6.1 6.0 6.0 5.8 5.9 5.8 5.7 5.7 5.6 5.6 5.3 5.2 5.2 5.0 4.8 4.8 4.8 5.7 5.8 5.4 5.6 5.8 5.5 5.3 5.3 5.4
5.4 5.2 5.5 5.4 5.0 5.2 4.9 5.1 5.2 5.3 5.5 5.4 5.5 5.5 5.6 5.5 5.4 5.5 5.5 5.6 5.7 5.8 5.8 5.9 6.0 5.9 5.9 5.9 5.9 5.8 5.6 5.6 5.6 5.4 5.0 4.8 4.8 4.7 4.9 5.5 5.4 5.6 6.9 6.5 6.0 5.9 5.7
5.1 5.5 5.1 5.3 5.4 4.9 5.2 5.0 4.9 5.1 5.2 5.4 5.2 5.2 5.1 5.4 5.3 5.3 5.4 5.4 5.3 5.4 5.4 5.5 5.4 5.5 5.8 5.7 5.6 5.6 5.7 5.6 5.4 5.2 5.0 4.9 4.8 4.8 4.9 5.1 5.3 6.3 6.3 6.3 6.0 5.9 6.0
5.0 5.1 5.3 5.0 5.2 4.9 4.7 5.0 4.9 4.6 5.0 5.1 5.3 5.1 5.0 5.0 5.3 5.3 5.1 5.1 5.3 5.3 5.2 5.1 5.0 4.8 4.7 4.9 4.9 5.2 5.3 5.1 5.2 4.9 4.8 4.5 4.3 4.4 4.7 4.5 6.1 6.8 6.4 5.9 5.9 6.3 6.1
5.1 4.7 4.9 4.7 4.9 4.9 4.4 4.7 5.0 4.6 4.4 4.7 4.8 5.1 5.2 4.9 5.0 5.1 5.1 5.0 5.0 4.9 5.0 5.1 4.8 4.7 4.4 4.1 4.3 4.3 4.6 4.9 4.8 4.8 4.6 4.3 4.1 3.8 3.7 4.1 5.2 6.0 6.1 6.1 5.8 5.6 6.3
4.9 4.9 4.6 4.7 4.8 5.0 4.5 4.2 4.5 4.9 4.5 4.2 4.3 4.4 4.8 5.0 4.9 4.9 5.0 4.9 4.8 4.9 4.6 4.7 5.0 4.6 4.2 4.0 3.5 3.8 3.9 4.2 4.1 4.2 4.5 4.3 3.8 3.4 3.4 3.7 4.9 5.8 5.7 5.6 5.2 5.9 5.8
4.8 4.9 4.4 4.3 4.7 4.8 4.6 4.3 4.3 4.6 4.6 4.5 4.3 4.4 4.3 4.6 4.9 5.0 4.8 4.9 4.8 4.6 4.7 4.5 4.4 4.9 4.3 3.8 3.6 3.8 3.6 4.0 4.1 4.4 4.5 4.4 4.2 4.0 3.1 3.2 4.2 5.8 5.3 5.1 5.3 5.1 5.1
3.9 4.2 4.2 4.3 4.4 4.4 4.1 4.4 4.5 4.2 4.5 4.4 4.4 4.4 4.4 4.3 4.3 4.6 5.0 4.9 5.0 4.9 4.6 4.6 4.6 4.4 4.4 4.5 4.0 3.5 3.5 3.6 4.0 4.0 4.6 4.6 5.0 4.9 4.9 5.5 5.5 5.4 5.1 4.9 4.9 4.9 4.8
Wind_Speed
25 27 28 29 30 30 28 25 24 23 22 21 21 16 12 5 4 5 6 5 5 9 6 4 5 23 10 6 4 13 10 16 13 7 8 7 8 5 7 5 5 4 4 3 4 5 8
26 26 28 28 29 30 26 26 25 24 20 21 24 19 11 6 5 6 4 16 10 11 8 2 15 10 6 6 3 7 11 9 9 8 6 2 4 8 9 4 2 2 2 5 4 4 6
25 26 27 27 27 28 27 25 25 25 24 24 24 21 12 7 8 9 8 16 16 15 15 19 12 2 12 6 4 7 8 6 8 9 8 7 8 4 7 6 3 1 3 3 3 1 2
24 25 27 27 26 26 26 26 25 24 24 24 21 19 14 11 12 7 8 13 16 15 14 14 12 7 5 5 10 7 10 15 13 13 13 11 11 10 3 7 3 1 1 2 3 2 2
22 24 26 26 26 26 27 27 27 24 24 24 23 17 17 13 11 16 12 13 16 14 18 11 11 6 5 5 5 5 3 11 11 11 9 5 4 4 4 4 3 1 2 2 4 1 2
22 22 23 25 25 26 27 28 27 26 23 21 22 16 15 16 15 23 29 28 23 17 11 11 6 6 3 5 4 6 7 6 6 10 6 3 3 3 3 3 2 3 2 3 6 0 8
21 21 22 23 25 26 27 26 26 26 24 22 18 21 15 18 15 12 5 3 4 8 10 9 10 14 12 3 3 7 4 8 3 4 3 3 3 5 7 7 6 2 2 6 9 7 10
20 20 21 22 25 25 26 26 24 23 23 21 16 15 19 22 17 14 8 7 4 5 12 18 18 15 7 1 8 8 4 2 3 6 1 2 5 5 6 3 1 0 4 6 9 4 6
20 19 20 21 23 24 25 25 24 22 22 22 18 10 11 15 15 16 15 10 4 1 6 9 8 5 4 5 6 5 4 2 5 4 5 4 6 7 1 2 2 3 6 4 6 12 12
20 19 18 20 22 24 26 25 23 24 22 19 19 16 2 4 6 2 4 4 2 1 5 9 5 5 2 2 4 4 5 3 2 3 2 4 3 2 1 2 3 4 2 6 7 9 5
19 19 18 19 20 22 23 25 26 24 24 22 16 12 11 1 7 2 1 2 2 2 6 7 4 1 4 2 5 3 4 3 4 3 3 2 4 4 3 2 6 2 2 8 11 12 10
18 19 19 18 19 20 21 24 24 24 24 24 18 12 5 2 1 3 0 2 3 0 8 3 2 1 3 4 2 1 2 3 0 1 1 1 1 2 2 2 8 9 10 9 2 2 4
17 18 19 20 19 19 21 21 22 24 23 25 18 9 4 1 2 4 2 2 3 7 1 3 3 2 4 3 3 1 1 2 2 1 5 1 2 1 3 4 3 4 4 3 2 3 4
16 17 18 19 19 19 20 21 21 22 22 23 18 7 3 2 3 1 2 3 11 2 3 2 0 3 4 1 3 2 1 3 2 3 3 4 2 4 6 3 3 4 3 3 4 3 6
15 16 17 19 19 19 21 21 21 20 21 22 10 2 2 5 0 3 1 8 4 2 2 3 1 3 3 3 1 2 4 3 2 3 2 3 2 2 6 3 1 3 4 2 4 5 4
13 15 17 17 19 19 19 21 21 21 23 13 2 2 4 10 2 0 5 7 4 2 2 1 1 1 2 2 0 0 2 1 2 5 3 2 3 3 2 3 7 6 1 4 3 3 4
11 14 16 17 18 19 20 20 22 20 22 3 2 1 4 4 3 6 6 5 3 2 2 1 2 2 3 2 1 2 1 2 3 2 5 1 1 2 3 7 6 4 3 5 3 3 3
12 11 14 16 16 19 19 19 19 19 19 5 1 2 5 2 4 2 3 2 0 3 1 1 2 2 2 2 2 1 2 3 5 4 3 4 2 4 4 2 4 3 4 4 3 2 3
13 12 11 14 16 17 19 18 16 14 13 1 2 1 2 3 3 3 3 3 1 1 2 1 1 1 2 3 2 3 4 2 7 6 2 4 3 4 3 3 4 5 5 6 5 1 7
14 13 11 11 14 15 17 16 12 9 9 2 1 1 3 4 2 3 2 2 4 2 2 2 1 2 3 2 2 2 2 3 5 6 3 3 3 7 3 4 1 5 6 6 8 4 3
13 14 12 11 12 14 16 15 8 8 7 1 3 2 3 2 3 4 1 0 2 3 1 2 2 2 1 1 1 2 1 2 2 1 3 3 4 4 12 15 13 12 12 9 11 10 5
14 11 13 11 12 12 14 12 8 6 2 3 2 2 2 2 2 3 0 3 2 2 4 3 2 1 1 2 2 2 1 2 2 2 2 1 3 3 7 2 7 12 14 11 11 13 13
14 12 11 12 12 13 13 11 6 5 3 2 1 1 1 1 0 2 2 5 4 1 3 3 3 2 5 5 4 7 7 6 3 2 2 2 3 3 4 3 11 11 15 15 8 9 9
15 14 11 11 11 13 13 1 2 2 3 2 1 1 1 3 3 3 2 3 5 3 3 2 4 3 1 1 2 2 5 8 9 10 7 3 3 2 4 7 4 2 1 4 11 8 15
15 15 12 10 9 9 4 8 4 1 4 3 2 1 1 2 2 3 6 4 2 3 3 4 4 3 4 3 3 4 2 3 4 6 10 8 2 3 4 4 10 3 4 5 6 7 17
14 14 14 11 8 5 4 6 6 3 3 3 2 0 1 1 5 2 4 5 4 3 3 4 1 0 1 2 2 3 3 1 2 3 3 4 3 4 1 3 4 1 2 3 2 7 2
14 13 15 13 10 7 7 11 6 5 3 2 1 1 1 2 2 5 4 4 4 2 3 2 2 3 1 2 3 5 3 1 3 3 4 4 4 10 8 5 9 4 4 4 3 2 2
15 15 16 16 14 11 9 12 11 8 5 3 1 2 1 2 3 8 5 5 3 3 3 3 2 2 3 4 2 2 3 1 3 3 5 7 7 5 5 6 8 4 4 5 5 3 1
16 16 18 18 17 15 13 13 13 12 8 5 1 1 1 2 3 3 6 4 4 5 3 3 3 1 3 3 3 1 2 2 4 3 3 5 7 4 8 5 2 6 6 5 4 6 8
Wind_Direction
13 10 3 3 4 9 11 21 23 23 22 16 9 6 8 67 132 357 72 20 279 146 110 90 106 129 85 62 58 315 182 129 124 121 139 140 153 138 137 129 132 201 173 229 240 270 274
13 12 6 4 12 15 14 17 16 21 20 15 8 17 14 36 49 37 109 153 172 115 81 90 139 113 114 102 338 18 71 103 111 117 112 130 136 113 106 113 201 128 238 268 281 264 260
15 12 7 5 11 16 21 17 17 14 13 13 22 28 44 66 60 78 112 123 111 98 83 94 101 163 81 86 70 37 341 103 107 119 104 102 124 111 121 130 117 120 266 261 215 191 242
17 12 10 6 7 12 13 16 19 19 19 16 26 42 58 70 45 74 108 108 103 93 98 92 72 71 76 86 116 131 120 90 89 90 99 105 102 95 88 121 111 209 247 249 156 284 103
19 15 10 7 7 7 12 12 12 13 24 20 22 50 58 49 47 73 144 138 110 104 98 108 64 41 62 116 92 353 117 108 97 92 86 84 74 88 129 159 160 112 245 266 289 244 250
11 17 13 9 6 7 8 11 12 15 22 32 32 38 47 44 57 88 91 93 91 92 82 86 81 94 9 77 43 72 76 103 106 116 95 50 79 113 119 181 231 152 228 262 275 317 270
8 16 14 11 7 5 6 7 12 18 25 30 35 39 43 55 47 47 52 71 69 42 29 61 87 91 77 111 189 75 62 104 70 66 89 49 102 93 99 75 96 94 296 290 281 295 290
12 9 13 11 6 6 5 6 10 17 24 30 32 51 55 77 61 68 82 82 45 141 60 51 70 74 56 348 91 58 16 55 23 85 70 129 89 111 103 103 90 71 295 297 285 281 287
8 9 8 9 8 6 5 4 2 7 14 29 30 42 47 67 73 61 68 54 63 181 86 45 41 44 16 39 104 47 12 63 75 74 50 73 93 130 77 177 246 248 268 314 297 319 286
5 6 7 6 8 7 4 2 1 358 3 13 29 32 78 358 54 353 39 332 4 319 80 18 45 40 30 268 74 4 14 21 71 83 73 72 124 228 178 271 223 300 225 279 303 323 309
2 0 6 4 4 5 0 359 359 356 358 360 7 39 37 111 137 122 159 321 331 261 78 354 20 189 54 47 117 38 2 25 68 108 250 105 166 185 240 293 192 337 294 288 289 285 307
360 357 359 2 2 1 359 356 354 354 354 355 354 359 17 86 138 92 14 187 193 160 59 37 47 29 107 60 68 76 29 53 304 178 188 162 57 258 305 295 218 304 304 296 285 273 261
358 354 353 356 1 359 357 356 352 348 350 350 347 344 36 354 317 334 250 208 82 51 184 59 46 50 100 81 97 42 19 63 30 339 28 356 161 213 221 275 193 239 313 310 263 221 273
357 355 349 351 0 357 355 355 355 347 343 349 341 332 19 31 297 177 215 98 67 46 84 154 237 85 69 20 68 46 21 68 86 16 61 11 160 189 167 247 321 255 283 305 292 275 310
359 353 353 349 354 357 354 355 353 346 338 339 337 348 2 358 282 183 98 65 89 169 148 157 146 61 70 70 34 355 30 25 18 220 14 359 284 146 213 229 225 133 215 82 260 234 255
346 352 351 351 351 352 353 352 355 350 344 350 33 324 31 338 272 295 64 82 79 100 123 247 86 355 96 51 85 327 31 162 206 210 257 75 287 191 156 210 230 225 32 221 197 275 290
335 348 350 351 349 351 352 353 354 354 352 35 9 52 4 353 251 49 67 70 48 355 260 306 45 94 70 130 80 149 98 187 215 173 193 291 249 178 206 206 188 180 216 209 262 254 294
327 338 350 348 350 346 350 351 356 357 356 51 2 69 356 318 45 41 63 109 238 26 66 357 350 32 4 211 178 211 224 241 189 182 212 194 266 269 243 191 250 232 234 238 260 160 240
323 321 345 348 346 348 346 350 355 7 18 341 46 319 7 299 80 72 118 105 60 119 50 157 207 260 175 198 220 230 221 240 197 202 225 169 214 276 198 164 181 238 208 234 262 267 243
318 320 333 347 345 342 347 347 353 2 13 71 52 18 25 56 65 85 116 89 135 176 137 168 158 188 191 176 216 204 235 190 187 220 205 207 247 255 281 306 309 249 236 233 225 235 275
309 315 317 336 343 340 345 347 353 351 2 146 17 72 354 103 86 109 113 294 161 148 158 358 141 79 192 238 217 257 289 286 181 228 210 229 264 224 260 268 261 257 263 244 208 223 249
304 307 309 322 334 337 339 338 335 345 359 74 114 155 103 59 107 138 108 177 225 213 205 156 170 292 227 247 235 270 243 214 248 154 214 201 283 291 290 301 225 259 262 247 241 241 254
292 295 300 309 324 332 330 322 306 327 18 93 106 101 181 51 328 225 188 168 197 198 233 273 181 193 232 238 243 273 250 257 245 240 216 233 281 305 278 310 308 271 244 207 196 206 219
288 285 289 296 318 331 330 286 243 330 90 99 126 141 183 150 207 243 221 211 203 213 289 257 230 247 90 330 288 261 240 241 235 229 227 239 252 238 283 305 246 32 85 238 223 219 211
282 275 281 281 310 337 48 121 104 360 116 95 136 168 171 172 196 208 219 225 259 251 241 250 240 323 339 319 278 294 214 211 201 219 212 221 260 272 282 284 292 250 194 192 203 273 218
272 265 266 262 277 307 168 161 122 75 118 87 102 94 124 217 222 119 171 207 229 222 235 226 204 188 322 297 255 254 258 287 232 167 85 156 237 264 310 283 262 63 162 181 211 273 28
266 258 255 251 249 245 205 201 187 150 145 115 107 221 147 222 196 172 188 182 174 178 267 278 185 163 114 225 254 235 239 216 241 224 172 177 205 229 236 263 279 267 149 159 210 30 151
263 255 248 246 237 238 221 210 208 195 169 138 103 224 222 216 224 197 203 162 147 220 208 134 185 179 150 205 235 286 269 203 258 228 193 191 183 197 191 222 264 142 127 224 6 343 358
256 257 246 235 234 235 228 217 209 206 190 159 148 197 278 217 291 223 217 232 213 185 202 195 327 166 176 167 200 167 241 270 260 273 200 223 214 193 212 230 165 194 236 242 244 265 285